Location: Janeiro
(34.9957°N, 76.7652°W)
Time: 12:43:42
(UTC+00:00)

Cosmos 2221 Rocket - Pass Details

Date: 14 December 2019
Orbit: 620 x 648 km, 82.5° (Epoch: 19 January)

Event Time Altitude Azimuth Distance (km) Brightness Sun altitude
Rises 22:57:08 0° 178° (S) 2,920 7.3 -12.2°
Reaches altitude 10° 22:59:23 10° 175° (S) 2,011 6.4 -12.6°
Maximum altitude 23:03:47 63° 95° (E) 703 3.6 -13.5°
Drops below altitude 10° 23:08:11 10° 14° (NNE) 2,008 5.9 -14.3°
Enters shadow 23:09:36 - 12° (NNE) 2,577 6.4 -14.6°
